Weather History for KPEO - August, 2013

Change the Weather History Date:

Saturday, August 3, 2013

  Actual Average (KITH) Record (KITH)
Temperature  
Mean Temperature 68 °F -  
Max Temperature 75 °F 80 °F 97 °F (1936)
Min Temperature 60 °F 59 °F 41 °F (1959)
Cooling Degree Days 2    
Growing Degree Days 18 (Base 50)    
Moisture  
Dew Point 53 °F    
Average Humidity 54    
Maximum Humidity 75    
Minimum Humidity 41    
Precipitation  
Precipitation 0.00 in - - ()
Sea Level Pressure  
Sea Level Pressure 29.90 in    
Wind  
Wind Speed 6 mph (West)    
Max Wind Speed 12 mph    
Max Gust Speed 18 mph    
Visibility 10 miles    
Events      
Averages and records for this station are not official NWS values.
T = Trace of Precipitation, MM = Missing Value Source: NWS Daily Summary

Daily Weather History Graph

Daily Weather History Graph

Search for Another Location

Airport or City:

Trip Planner

Search our weather history database for the weather conditions in past years. The results will help you decide how hot, cold, wet, or windy it might be!

Date:

Astronomy

Aug. 03, 2013 Rise Set
Actual Time 6:02 AM EDT 8:25 PM EDT
Civil Twilight 5:30 AM EDT 8:57 PM EDT
Nautical Twilight 4:51 AM EDT 9:36 PM EDT
Astronomical Twilight 4:07 AM EDT 10:20 PM EDT
Moon 3:08 AM EDT (8/3) 6:07 PM EDT (8/3)
Length of Visible Light 15h 26m
Length of Day
14h 23m
Waning Crescent, 9% of the Moon is Illuminated
Aug 3
Waning Crescent
Aug 6
New
Aug 14
First Quarter
Aug 20
Full
Aug 28
Last Quarter

Hourly Weather History & Observations

Time (EDT) Temp. Dew Point Humidity Pressure Visibility Wind Dir Wind Speed Gust Speed Precip Events Conditions
12:53 AM 66.9 °F - N/A% 29.83 in 10.0 mi SSW 5.8 mph - N/A   Overcast
1:53 AM 66.9 °F - N/A% 29.83 in 10.0 mi SW 10.4 mph - N/A   Scattered Clouds
2:53 AM 66.0 °F - N/A% 29.84 in 10.0 mi WSW 5.8 mph - N/A   Partly Cloudy
3:53 AM 64.9 °F - N/A% 29.86 in 10.0 mi West 3.5 mph - N/A   Clear
4:53 AM 64.0 °F - N/A% 29.86 in 10.0 mi Calm Calm - N/A   Clear
5:53 AM 60.1 °F - N/A% 29.88 in 10.0 mi SE 4.6 mph - N/A   Clear
6:53 AM 62.1 °F - N/A% 29.90 in 10.0 mi Calm Calm - N/A   Partly Cloudy
7:53 AM 64.9 °F - N/A% 29.91 in 10.0 mi Variable 4.6 mph - N/A   Clear
8:53 AM 68.0 °F - N/A% 29.91 in 10.0 mi West 6.9 mph - N/A   Clear
9:53 AM 70.0 °F - N/A% 29.91 in 10.0 mi NW 5.8 mph - N/A   Clear
10:53 AM 71.1 °F 55.0 °F 57% 29.91 in 10.0 mi West 6.9 mph - N/A   Clear
11:53 AM 73.0 °F 54.0 °F 51% 29.91 in 10.0 mi NW 5.8 mph - N/A   Clear
12:53 PM 73.9 °F 52.0 °F 46% 29.91 in 10.0 mi WNW 8.1 mph - N/A   Partly Cloudy
1:53 PM 73.9 °F 51.1 °F 45% 29.90 in 10.0 mi NW 11.5 mph - N/A   Partly Cloudy
2:53 PM 75.9 °F 52.0 °F 43% 29.90 in 10.0 mi WNW 11.5 mph 18.4 mph N/A   Partly Cloudy
3:53 PM 75.0 °F 50.0 °F 41% 29.90 in 10.0 mi West 11.5 mph 16.1 mph N/A   Clear
4:53 PM 75.0 °F 50.0 °F 41% 29.91 in 10.0 mi NW 9.2 mph 17.3 mph N/A   Partly Cloudy
5:53 PM 72.0 °F 50.0 °F 46% 29.91 in 10.0 mi Variable 6.9 mph - N/A   Scattered Clouds
6:53 PM 71.1 °F 50.0 °F 47% 29.92 in 10.0 mi NW 6.9 mph - N/A   Mostly Cloudy
7:53 PM 68.0 °F 53.1 °F 59% 29.92 in 10.0 mi West 4.6 mph - N/A   Partly Cloudy
8:53 PM 66.9 °F 54.0 °F 63% 29.93 in 10.0 mi WNW 3.5 mph - N/A   Overcast
9:53 PM 66.0 °F 54.0 °F 65% 29.94 in 10.0 mi West 8.1 mph - N/A   Mostly Cloudy
10:53 PM 63.0 °F 55.0 °F 75% 29.93 in 10.0 mi WSW 4.6 mph - N/A   Clear
11:53 PM 63.0 °F 55.0 °F 75% 29.93 in 10.0 mi West 5.8 mph - N/A   Clear